Content
SEND FEEDBACK

Daily
Averages
Monthly
Summary
United States of America

LAKE PLACID, NEW YORK


Home > North America > United States > New York
Elevation: 1984 feet     Latitude: 44 15N     Longitude: 073 59W

WEATHER
 
SELECT A DAY
Number of Records: 228,906;   Date Range: 1/1/95 - 10/20/14
 
SHARE

PRINT THIS DATA

[ ← Previous Day ]
WEATHER ALMANAC - AUGUST 18, 2014
[ Next Day → ]
[ °C ]   °F
Weather ElementAverageHighLow
Temperature54 °F64.9 °F (12:51 pm)41 °F (11:51 pm)
Dewpoint47 °F54 °F (2:12 am)39 °F (11:51 pm)
Humidity78.8 %97 % (4:23 am)48 % (4:51 pm)
Barometer29.91 in29.95 in (1:51 am)29.89 in (7:51 pm)
Wind Speed3.5 mph6.9 mph (9:51 am)
Weather ElementAverage
Visibility9.7 mi
Wind DirectionESE (108.5 °)

Weather ElementTotal
Precipitation---
Heating Degree Days12.1 (Base 65)
Growing Degree Days3 (Base 50)
Averaged from 33 records on August 18, 2014
WEATHER CONDITIONS BREAKOUT
WIND DIRECTION BREAKOUT
WEATHER BY HOUR - AUGUST 18, 2014
[ °C ]   °F
Local TimeTemperatureDewpointHumidityBarometerVisibilityWind DirectionWind SpeedGust SpeedPrecipitationEventsConditions
12:21 AM57.0 °F54.0 °F89 %29.90 in10.0 miNW (310°)4.6 mphMostly Cloudy
12:31 AM57.0 °F54.0 °F89 %29.90 in10.0 miVariable5.8 mphOvercast
2:33 AM54.0 °F48.9 °F83 %29.89 in10.0 miVariable3.5 mphOvercast
2:40 AM54.0 °F48.9 °F83 %29.89 in10.0 miNNW (330°)4.6 mphOvercast
2:48 AM53.6 °F48.2 °F82 %29.89 in10.0 miWNW (300°)3.5 mphOvercast
2:51 AM53.1 °F48.9 °F86 %29.89 in10.0 miCalmOvercast
3:35 AM53.1 °F48.9 °F86 %29.89 in10.0 miVariable4.6 mphOvercast
3:51 AM53.1 °F50.0 °F89 %29.89 in10.0 miVariable3.5 mphOvercast
4:37 AM52.0 °F50.0 °F93 %29.89 in9.0 miVariable5.8 mphOvercast
4:51 AM52.0 °F50.0 °F93 %29.89 in10.0 miWNW (300°)4.6 mphOvercast
5:35 AM52.0 °F48.9 °F89 %29.90 in10.0 miCalmOvercast
5:51 AM51.1 °F46.9 °F86 %29.91 in10.0 miVariable3.5 mphMostly Cloudy
6:02 AM50.0 °F46.9 °F89 %29.91 in10.0 miCalmScattered Clouds
6:51 AM50.0 °F46.9 °F89 %29.92 in10.0 miCalmScattered Clouds
7:16 AM52.0 °F46.9 °F83 %29.92 in10.0 miCalmMostly Cloudy
7:51 AM52.0 °F46.9 °F83 %29.94 in10.0 miVariable4.6 mphOvercast
8:02 AM53.1 °F46.9 °F80 %29.93 in10.0 miNNE (30°)4.6 mphOvercast
8:51 AM52.0 °F46.0 °F80 %29.94 in10.0 miWNW (300°)6.9 mphOvercast
9:29 AM55.0 °F45.0 °F69 %29.93 in10.0 miVariable6.9 mphScattered Clouds
9:51 AM54.0 °F45.0 °F72 %29.94 in10.0 miVariable4.6 mphPartly Cloudy
10:22 AM55.9 °F46.0 °F69 %29.94 in10.0 miWest (270°)5.8 mphMostly Cloudy
11:09 AM57.9 °F45.0 °F62 %29.94 in10.0 miVariable3.5 mphScattered Clouds
11:51 AM61.0 °F46.0 °F58 %29.92 in10.0 miNNW (340°)6.9 mphScattered Clouds
1:51 PM63.0 °F45.0 °F52 %29.90 in10.0 miNNW (340°)6.9 mphPartly Cloudy
2:51 PM63.0 °F44.1 °F50 %29.90 in10.0 miNorth (360°)5.8 mphPartly Cloudy
3:51 PM64.9 °F45.0 °F48 %29.89 in10.0 miVariable6.9 mphPartly Cloudy
5:51 PM64.0 °F46.0 °F52 %29.90 in10.0 miNNW (340°)3.5 mphClear
6:51 PM63.0 °F46.9 °F56 %29.90 in10.0 miNorth (360°)4.6 mphClear
7:51 PM54.0 °F48.9 °F83 %29.92 in10.0 miCalmClear
8:51 PM48.9 °F46.9 °F93 %29.94 in10.0 miCalmClear
10:51 PM42.1 °F41.0 °F96 %29.95 in4.0 miCalmClear
11:14 PM43.0 °F42.1 °F97 %29.93 in8.0 miCalmClear
11:51 PM41.0 °F39.0 °F93 %29.94 inCalmClear
Hourly data recorded from KSLK, located miles away from Lake Placid, New York







STORIES FROM OUR PARTNERS